COSMOS 249 DEB, 14412

Orbit data source: Space-Track

COSMOS 249 DEB, 14412 is space debris in LEO originally from a launch on Sun, 20 Oct 1968 UTC launched from the Tyuratam Missile And Space Complex (TTMTR). Debris objects in space refer to the collection of defunct objects orbiting the Earth. Examples of debris include non-operational satellites, rocket bodies, and fragments generated from explosions, collisions, or faulty payload assembly.

Loading next visibility...
Identifier
14412, 1968-091CN
Orbit
LEO
Country
Flag of CISCIS
Related business
Manufacturer
Unknown
Mission
Spacecraft
Bus & Motor
Unknown
Mass
Unknown
Launch date (UTC)
1968-10-20 (58 years ago)
Launch vehicle
Unknown
Launch site
Tyuratam Missile And Space Complex (TTMTR)
Object type
Payload
Rocket body
Debris
Shape & HBR
Unknown shape, 0.1 m
Radar Cross Section
Small (<0.1 m²)

Expand to show TLE details & history
Last TLE update: 2 days ago

TLE from 2 days ago
0 COSMOS 249 DEB
1 14412U 68091CN  26124.56771814  .00000735  00000-0  10119-2 0  9999
2 14412  62.2932 176.4594 0743711 323.2282  31.9804 12.84221611 81573
Epoch: 2026-05-04T13:37Z
TLE epoch observation values (Epoch: 2026-05-04T13:37:30.847Z)
Latitude
0.00001°
Longitude
109.62582°
Altitude
853.419 km
Speed
7.651 km/s
True Right ascension
11h 45m 50s
True Declination
0° 00' 00"
Sunlit
Object was in full shadow at epoch
Visualization orbit readout
Latitude
Unknown
Longitude
Unknown
Altitude
Unknown
Speed
Unknown
Apparent Right ascension
Unknown
Apparent Declination
Unknown
Sunlit
N/A
Visualization observer readout
Local Sidereal Time
20:29:01
Azimuth
Unknown
Elevation
Unknown
Doppler factor
Unknown
Orbital elements
Apogee altitude
1,896.316 km
Perigee altitude
750.753 km
Semi-major axis
7,701.672 km
Eccentricity
0.07437
Inclination
62.2932°
RAAN
176.4594°
Arg. of periapsis
323.2282°
True anomaly
36.87298°
Mean anomaly
31.9804°
Eccentric anomaly
34.38701°
Mean motion
3.21119 °/min
Orbital period
112.11 mins
BSTAR
0.0010119
Loading maneuver chart data...
Computing Atmospheric mass density...

Documentation

Showing up to 5 results
|